RH
33 33 34 32 31 28 27 26 24 23 22 22 22 21 22 24 26 27 29 30 31 30 30 30 27 27 28 25 24 28 28 24 31 51 43 12 5 5 7 11 12 18 16 14 14 17 26 30 27 28 37 36 41 44 41 72 88 81 91 97 99 98 97 91 84 84 84 87 89 84 77 74 77 75 67 67 72 75 76 74 70 69 67 69 71 72 78 84
29 29 29 27 26 25 24 23 22 20 20 20 20 20 19 20 22 25 26 28 31 30 31 30 26 28 30 26 28 33 34 39 53 64 38 10 12 6 7 16 15 16 15 14 12 16 24 28 30 31 38 39 41 43 48 73 81 85 99 99 98 94 91 86 81 85 80 81 91 88 79 74 77 75 67 73 78 75 80 80 76 79 77 74 73 76 82 86
26 26 25 24 23 22 22 21 20 19 19 19 19 19 18 18 18 22 25 26 29 32 32 28 26 29 26 25 31 37 48 57 50 40 26 18 18 7 10 19 16 16 15 13 10 13 20 23 28 31 35 36 38 47 62 80 82 87 97 99 98 87 87 87 81 85 83 83 90 86 79 78 77 72 69 77 80 78 82 83 83 87 85 82 79 81 85 89
28 26 24 23 22 21 20 19 17 17 17 17 17 18 18 18 17 19 23 26 28 32 31 26 26 26 22 27 36 46 60 56 32 23 24 22 17 8 11 19 17 14 15 12 9 12 14 16 23 26 30 31 35 53 74 83 80 85 90 93 95 86 89 90 81 85 87 84 86 84 81 81 77 71 70 75 79 83 80 75 79 84 84 84 83 84 86 90
32 30 26 23 22 20 19 17 16 15 15 15 16 16 16 17 17 16 19 23 27 31 30 26 27 23 23 34 46 60 60 41 26 24 25 22 17 11 11 19 20 16 17 13 9 11 9 12 18 23 28 29 34 49 69 78 76 84 86 86 90 87 91 90 83 87 88 84 85 83 78 78 76 71 71 72 75 79 75 69 71 75 79 82 82 84 86 88
34 32 28 24 22 20 18 16 15 13 14 14 14 15 15 15 16 16 16 21 27 32 31 28 27 22 25 42 56 62 47 29 24 20 22 23 17 13 12 17 20 19 17 13 12 10 8 13 19 28 30 30 35 40 57 74 74 79 84 83 86 88 91 89 85 88 85 83 86 79 76 82 78 72 72 68 69 73 70 65 66 71 74 77 79 81 85 87
34 31 28 24 22 21 18 16 15 13 13 12 13 13 13 14 14 15 15 19 25 32 33 29 26 21 29 48 59 59 44 30 23 18 22 22 16 15 13 14 20 21 16 14 14 12 13 16 21 31 33 33 35 35 54 78 75 73 82 86 88 91 94 92 89 89 84 84 87 79 80 88 81 78 76 66 69 72 67 64 65 70 71 74 78 80 83 85
33 30 26 24 23 21 19 18 15 13 12 11 12 11 12 13 13 15 15 18 24 32 34 28 24 23 34 51 52 48 42 30 20 20 24 21 17 15 14 17 23 22 18 16 15 15 18 20 22 28 33 34 35 44 65 81 78 73 80 91 93 94 95 94 93 91 89 88 85 81 85 90 88 88 79 69 72 70 65 66 66 70 72 75 78 79 81 82
31 28 26 25 24 22 21 19 16 14 13 12 12 11 12 11 12 14 15 17 23 33 36 28 24 27 44 57 47 34 28 21 17 19 23 22 19 15 16 19 24 23 18 18 17 15 16 20 24 26 32 33 33 55 76 77 76 78 85 95 97 96 94 94 96 93 94 92 82 83 91 94 92 85 74 72 75 67 64 67 68 71 75 76 76 77 80 81
28 27 26 26 24 23 23 21 18 16 13 13 12 11 12 11 12 14 16 18 24 36 37 29 25 34 52 50 33 25 21 15 13 16 22 25 21 18 18 17 21 22 19 20 17 12 16 21 23 24 30 31 32 55 74 73 77 85 91 94 93 95 95 93 97 94 93 94 85 87 95 95 91 82 76 77 72 65 66 69 70 73 75 75 75 76 78 79
27 26 25 25 24 22 22 21 20 18 15 15 12 12 12 11 12 14 17 18 27 39 39 30 27 41 58 44 23 19 16 13 14 16 20 24 24 21 20 19 18 19 21 22 17 10 14 21 23 27 29 30 48 73 80 77 81 87 87 91 92 92 93 91 96 96 93 96 90 85 91 91 87 85 84 79 69 66 69 72 72 72 74 74 74 76 78 77
25 25 24 23 22 21 21 21 20 18 17 15 12 12 11 11 12 14 17 19 30 41 38 30 31 48 62 52 34 20 11 15 19 19 19 20 25 24 20 19 18 17 17 17 18 11 9 19 21 28 29 25 53 82 83 78 81 85 86 93 96 88 92 93 94 98 95 96 91 81 86 92 87 86 86 77 70 69 70 72 72 72 72 72 73 75 77 76
24 23 23 22 20 20 20 20 20 18 16 14 12 11 10 11 11 13 17 21 34 43 35 30 40 59 61 45 32 21 15 18 18 21 22 19 21 24 21 18 14 14 13 11 13 9 5 12 16 27 28 17 38 64 71 73 78 87 88 92 96 91 96 95 91 97 95 94 94 87 90 96 90 85 85 77 71 71 72 72 70 69 69 68 70 72 75 75
24 22 21 20 19 19 19 19 19 17 14 12 11 9 9 10 13 18 21 25 39 42 34 37 49 65 64 40 22 18 18 16 14 17 18 15 16 23 23 17 12 11 12 7 8 10 7 8 14 23 18 14 39 61 70 78 85 93 89 90 97 98 100 94 91 98 95 93 96 92 93 96 91 85 83 77 72 70 70 70 66 65 64 64 65 68 73 73
23 21 19 18 18 18 18 19 18 16 13 10 9 9 10 15 23 28 26 32 45 40 40 51 56 63 62 39 19 15 16 14 12 11 11 10 12 21 23 17 12 10 10 7 7 12 12 11 14 16 16 30 57 75 82 85 92 95 87 92 100 99 99 93 91 95 92 94 94 91 93 95 91 84 82 79 74 68 67 67 63 61 60 60 61 63 70 72
21 20 19 17 16 17 18 19 18 16 11 8 9 11 17 29 38 38 35 42 45 40 48 62 64 60 48 28 16 15 16 14 12 10 9 8 9 17 20 16 13 11 10 10 9 11 11 12 14 18 35 64 79 85 89 86 91 92 86 96 101 97 98 93 92 91 89 95 95 93 95 97 92 84 83 82 75 69 66 65 62 59 58 57 58 60 67 71
21 20 17 16 15 15 18 19 18 14 9 8 10 16 28 40 44 44 44 46 44 44 53 64 68 55 31 16 16 17 17 15 13 13 10 8 10 15 17 17 17 15 13 12 11 12 12 14 20 22 39 71 81 81 88 83 82 89 91 99 100 95 95 94 95 93 90 93 95 95 95 94 90 84 84 82 75 70 67 65 61 58 58 56 55 59 67 72
20 19 17 16 14 14 18 19 18 12 7 9 13 22 36 44 47 47 46 46 48 51 54 60 60 41 20 14 17 17 17 16 15 13 11 10 10 13 16 16 17 16 15 15 13 15 16 18 26 24 30 61 79 79 79 70 66 81 93 97 98 97 94 94 96 95 93 93 94 96 94 93 89 86 87 81 74 70 66 64 61 58 58 56 55 60 66 70
19 19 17 15 13 13 17 20 17 10 7 10 15 25 36 44 51 50 49 53 50 38 32 42 43 28 19 18 18 18 17 15 14 11 11 13 11 13 15 13 14 14 14 17 16 17 20 21 26 25 28 59 87 78 59 58 67 78 89 93 96 98 96 94 94 93 92 94 97 94 93 95 92 92 91 83 77 71 65 64 63 61 59 56 57 60 65 68
19 18 16 15 13 12 16 19 16 9 8 11 15 24 30 34 43 44 44 55 53 31 18 27 33 28 24 23 20 19 16 13 12 10 10 13 14 14 15 14 17 17 16 18 17 17 20 23 29 28 27 44 67 57 36 49 75 83 89 95 95 97 98 95 94 94 92 94 97 92 92 93 91 94 92 86 81 71 67 67 66 66 60 56 59 61 64 65
18 17 16 14 11 11 15 18 15 8 9 13 14 22 26 24 30 33 29 37 43 36 28 27 28 27 23 22 21 17 14 13 12 10 10 13 14 14 17 17 17 19 19 17 18 19 20 23 27 27 26 27 32 30 19 27 54 77 91 95 96 99 97 92 91 93 94 97 96 92 94 93 90 94 93 88 81 69 68 66 64 67 61 57 59 61 63 62
18 17 15 13 11 10 14 17 13 9 12 14 14 21 25 21 23 24 22 26 29 31 34 30 27 28 25 22 22 19 16 15 14 12 11 13 15 17 19 19 17 19 19 16 18 23 21 21 21 20 23 22 22 21 19 26 49 78 92 94 97 97 95 95 93 92 94 99 98 92 95 95 92 94 92 89 82 77 80 74 65 62 60 59 59 61 63 61
21 17 14 13 11 9 13 15 12 12 14 13 15 22 22 20 25 21 21 28 27 25 30 28 25 28 28 21 20 23 21 17 15 12 11 13 17 19 19 20 19 18 17 14 16 20 20 19 18 18 18 19 20 17 27 49 67 83 90 93 98 95 94 98 96 94 93 95 96 93 96 99 98 96 92 89 87 89 90 87 79 66 57 56 55 59 62 61
28 19 14 12 9 9 13 12 12 15 14 11 16 21 16 20 28 21 22 33 33 29 26 23 23 23 23 16 14 22 20 15 14 11 12 15 18 19 18 22 22 20 20 17 15 16 17 16 13 16 17 17 17 17 37 59 69 82 86 87 97 96 94 98 96 93 91 91 91 92 98 100 98 98 94 91 90 91 88 87 87 73 59 54 54 57 59 59
33 23 15 11 9 10 11 13 17 15 12 12 16 18 13 17 24 20 28 41 41 37 26 18 19 17 13 11 12 16 13 13 13 12 13 14 17 18 17 21 22 22 24 20 17 16 18 16 11 13 14 16 15 16 38 55 62 83 84 78 89 92 94 98 93 92 96 97 93 93 99 98 97 98 94 94 93 90 87 86 84 76 63 56 54 57 58 58
36 27 17 12 11 8 12 22 22 14 12 12 15 16 11 16 24 21 34 47 40 30 20 13 13 10 8 9 12 14 14 16 13 13 15 13 15 16 17 22 20 21 26 23 20 20 19 14 11 13 12 17 17 13 34 54 64 81 79 74 85 89 94 97 91 93 99 100 95 94 97 95 98 98 92 94 94 87 86 87 84 78 69 58 53 55 56 58
39 30 18 15 15 13 18 24 21 15 12 11 15 15 9 16 21 18 34 46 32 18 14 12 11 7 7 9 11 14 17 18 14 14 16 14 14 14 17 23 20 19 22 23 25 23 17 12 13 14 10 16 18 13 31 51 63 78 78 78 88 91 95 94 90 97 98 95 95 95 95 94 97 97 90 91 93 89 86 85 85 83 72 59 53 53 54 56
39 31 20 15 18 22 23 23 24 19 10 12 17 11 10 18 20 25 41 37 20 13 12 11 9 6 8 9 10 13 14 15 15 13 14 14 14 13 16 21 22 21 20 20 25 25 18 16 17 15 13 17 16 13 30 52 71 83 80 80 88 90 91 89 91 99 96 94 98 97 94 94 96 96 93 92 94 92 86 80 82 83 75 61 53 52 52 54
39 31 20 14 17 24 24 25 27 18 12 17 15 9 13 18 22 38 50 34 15 13 11 9 9 8 9 9 10 13 11 13 16 14 15 15 13 14 16 20 22 19 19 19 22 22 17 19 20 14 12 12 13 21 37 60 81 83 75 76 82 84 87 89 94 99 96 95 99 97 94 95 98 98 98 97 96 93 83 76 76 77 75 67 56 52 53 56
38 30 19 13 18 25 27 25 19 13 17 18 11 12 16 26 45 54 45 29 17 14 11 8 9 9 10 10 11 13 10 12 16 15 16 15 14 15 14 18 21 19 24 26 22 21 17 23 27 18 13 17 32 52 58 65 75 72 73 78 79 84 90 95 98 97 96 99 97 91 90 95 97 97 98 95 92 87 77 72 72 73 76 74 65 55 53 57
36 27 17 12 18 27 29 24 16 15 18 11 9 17 20 37 67 62 34 22 18 14 12 10 10 11 10 10 11 12 12 14 17 16 18 15 16 20 15 19 25 25 35 34 24 23 20 22 27 23 31 45 61 75 68 64 67 67 75 79 79 88 92 92 96 93 95 100 96 88 88 95 97 95 95 91 84 81 75 70 70 70 73 76 73 61 52 54
33 23 14 10 16 24 24 19 16 16 12 7 14 31 39 41 46 46 33 22 16 13 11 10 11 12 13 14 13 13 14 15 16 17 19 18 20 23 19 24 27 23 33 35 24 24 22 19 20 28 49 62 69 80 74 67 69 66 72 78 84 96 95 93 97 95 96 98 94 90 89 93 97 94 91 88 83 79 75 70 66 65 67 72 76 67 54 52
29 19 10 10 15 19 19 17 14 12 8 11 22 43 60 49 32 39 41 23 11 11 12 11 13 15 16 16 14 15 15 13 15 17 17 19 23 23 20 25 26 17 25 31 24 27 30 24 21 30 48 52 59 81 84 78 76 67 64 71 83 98 100 98 101 97 94 96 94 91 91 93 95 90 85 83 78 74 76 76 71 66 65 69 76 71 57 51
27 17 8 11 16 16 19 18 16 14 9 16 32 41 47 43 37 43 39 21 13 12 10 10 15 17 16 16 15 15 16 14 16 19 21 23 25 25 22 22 21 18 24 27 25 30 32 27 21 20 29 35 48 70 72 70 74 64 56 58 66 83 89 87 95 98 93 96 98 93 91 93 93 91 87 78 70 71 77 80 74 68 66 68 75 76 64 51
24 14 8 11 15 17 17 15 17 15 12 32 55 51 43 45 49 45 31 20 15 10 10 14 20 22 20 22 20 15 15 16 18 24 26 26 25 24 22 19 19 22 25 25 26 29 30 28 22 17 18 21 37 56 55 57 69 61 51 53 54 67 78 76 83 95 95 97 100 96 93 93 90 90 92 83 72 73 80 82 76 68 65 69 76 78 69 54
21 13 12 12 17 20 13 9 14 12 22 52 59 48 53 54 42 35 27 20 14 10 13 17 20 24 23 26 26 19 16 15 20 27 26 25 25 22 21 19 18 20 23 25 26 27 31 30 23 22 21 14 26 50 51 52 67 63 53 56 53 54 70 81 85 88 87 83 85 90 95 93 84 83 91 89 80 79 82 82 77 67 64 69 73 76 73 60
19 17 20 18 19 19 11 8 9 11 35 59 46 38 58 50 30 32 32 23 17 14 16 19 18 20 21 24 26 24 20 17 20 26 26 26 24 21 21 20 18 18 21 25 24 23 28 31 26 23 23 17 23 45 51 45 57 69 64 57 55 55 62 75 86 88 84 79 81 89 97 92 80 82 93 93 87 86 84 80 74 67 65 66 67 71 75 65
27 28 27 22 19 18 15 9 8 25 52 64 56 54 55 40 28 33 29 22 22 17 16 20 17 16 21 24 23 22 21 20 24 29 30 28 25 20 20 20 18 19 22 24 27 27 26 31 34 27 23 23 25 47 63 48 41 61 69 60 65 74 68 63 72 82 82 83 86 87 92 93 86 88 95 91 89 88 83 80 75 67 65 64 64 68 73 70
34 31 22 22 23 20 14 8 17 42 50 48 60 62 44 34 37 36 31 26 22 15 13 17 16 16 23 25 22 20 20 20 24 30 32 28 25 20 18 19 17 19 24 24 25 31 30 30 34 30 25 23 25 45 62 45 28 37 47 52 64 74 69 59 60 68 69 75 83 78 80 90 85 84 89 86 86 86 81 81 78 69 64 60 60 66 71 73
41 24 15 22 25 18 14 16 31 49 39 32 54 56 35 30 33 31 32 26 16 11 11 15 16 17 22 23 21 19 21 23 23 25 27 26 23 19 17 19 18 18 26 26 24 33 37 36 41 39 30 27 26 30 34 31 28 28 29 40 48 47 51 53 52 59 64 73 81 74 77 87 79 76 84 81 82 85 78 76 73 66 62 59 58 62 69 73
47 15 15 25 23 19 21 26 36 46 42 38 47 44 32 30 27 26 30 25 16 11 8 14 19 21 22 22 20 19 23 28 26 23 25 23 21 20 17 19 19 18 24 27 25 28 32 40 52 47 35 33 32 24 23 28 28 27 35 44 39 32 42 49 52 61 65 69 76 71 73 81 77 81 88 79 78 81 72 67 68 64 61 61 60 60 65 71
37 10 17 23 21 24 29 39 47 46 42 39 35 31 30 32 30 26 22 18 15 11 9 13 17 20 23 20 21 25 28 31 27 23 23 21 21 21 17 19 21 22 26 27 24 30 42 52 56 48 40 37 32 29 33 32 27 30 43 52 49 50 56 54 54 61 59 61 70 69 65 68 73 88 92 81 80 81 69 61 63 63 62 63 67 67 67 70
29 19 20 18 24 31 31 42 49 39 36 38 31 25 25 26 26 24 20 17 15 11 8 11 12 16 19 17 19 23 26 28 24 22 24 22 20 19 20 25 26 25 27 23 20 31 49 55 51 55 66 57 38 36 38 34 36 40 43 55 65 75 77 62 53 60 62 62 68 65 61 65 76 90 92 83 84 88 82 72 65 67 69 68 73 78 77 75
47 43 37 26 24 28 31 41 44 40 45 43 29 23 24 21 21 21 19 19 17 11 8 10 11 11 12 16 20 22 23 24 21 21 25 23 20 22 26 30 27 25 25 23 21 21 30 47 56 67 78 64 44 48 49 44 48 46 46 62 74 82 88 69 48 54 61 64 68 62 62 70 77 87 92 86 86 93 96 90 81 80 83 82 84 87 85 83
53 44 48 43 30 26 32 41 42 42 47 41 32 34 30 22 21 19 18 20 19 13 9 8 10 12 14 20 25 26 26 25 22 24 25 24 25 26 26 28 29 33 41 46 45 34 34 55 73 76 69 55 56 70 65 55 59 59 63 76 79 84 94 75 48 47 55 61 64 60 64 77 82 87 95 94 92 97 99 96 91 88 87 87 90 92 91 91
38 29 47 59 50 42 43 46 45 45 45 43 45 45 33 25 27 22 15 15 15 11 9 9 11 14 17 23 26 26 26 26 27 29 29 29 30 27 26 28 31 43 59 63 58 56 59 64 75 84 68 49 61 77 65 57 71 78 80 85 84 85 93 79 54 50 59 62 65 69 77 90 94 93 97 99 98 99 99 97 95 93 90 89 92 94 94 93
42 39 54 61 54 53 56 54 55 58 52 45 47 42 31 32 35 26 17 12 10 12 11 10 11 12 16 24 25 22 28 34 35 32 31 34 36 32 30 26 26 43 59 54 49 61 67 58 59 70 61 47 56 65 59 64 81 84 82 87 90 87 93 91 77 74 71 52 50 75 93 97 97 94 95 100 99 98 100 99 98 98 96 94 95 96 96 95
47 46 56 57 52 59 61 51 55 64 55 49 54 45 33 38 40 33 27 19 13 12 10 11 14 12 15 23 22 22 30 33 33 33 33 36 37 33 31 24 23 39 45 35 42 61 63 51 48 52 54 56 57 56 60 72 80 79 80 88 94 90 92 98 94 94 86 58 54 84 100 99 98 94 93 98 98 98 99 97 97 98 97 97 96 96 97 98
62 64 69 65 58 64 65 56 61 64 55 56 61 48 39 43 41 35 31 24 18 16 12 13 18 15 17 28 32 30 31 29 30 36 36 35 34 32 30 24 24 36 35 24 34 54 52 45 50 55 55 57 57 57 65 75 76 76 77 85 95 95 92 94 91 89 90 82 84 97 100 99 99 95 95 97 94 94 95 93 95 97 97 98 97 95 97 98
76 79 81 77 72 75 74 68 66 61 56 60 55 44 45 44 39 38 33 25 21 19 15 13 19 22 25 37 38 26 27 37 36 37 37 33 33 36 36 28 26 34 36 28 31 41 38 40 58 67 53 46 54 57 61 70 75 76 79 85 95 96 92 94 93 90 92 92 91 94 97 101 99 94 95 95 91 92 94 96 98 98 97 98 96 95 96 97
70 71 75 78 78 81 77 73 69 57 55 65 59 51 52 45 40 41 38 33 25 20 19 17 19 26 28 33 30 15 23 43 40 34 38 33 30 37 34 28 28 31 34 33 32 37 39 42 61 71 53 42 53 62 68 72 66 66 76 84 93 99 97 95 93 91 96 98 94 93 97 101 99 95 95 94 93 95 97 98 100 99 98 97 97 99 98 97
73 72 79 76 72 79 79 74 73 57 49 61 62 54 52 48 43 40 39 42 33 19 18 18 20 28 27 23 21 13 20 37 33 28 34 32 30 37 36 34 33 29 33 36 30 39 52 47 50 63 54 42 55 74 82 76 61 63 74 77 89 102 100 97 95 91 92 99 99 98 98 99 98 96 96 97 96 97 98 99 99 99 99 98 98 100 99 98
Wind_Speed
15 15 15 14 14 14 14 14 14 14 14 14 14 14 14 14 14 14 15 15 15 15 14 12 11 12 11 11 14 17 19 17 12 7 5 6 4 4 3 4 10 13 11 10 9 9 7 4 4 6 4 2 0 0 2 2 1 2 2 2 1 1 2 3 3 2 2 3 4 3 4 10 8 2 3 5 7 6 7 7 6 7 8 11 15 21 23 21
16 16 16 16 15 15 15 14 14 14 14 14 14 14 14 14 14 14 14 15 15 16 15 12 11 11 11 11 14 16 18 16 11 7 5 4 3 3 7 8 10 12 11 8 7 8 7 3 5 7 3 1 0 1 3 1 1 2 2 2 2 3 3 2 3 3 2 4 4 3 4 7 8 6 4 4 5 6 9 6 6 10 10 12 17 22 22 21
17 17 17 17 17 17 16 16 15 16 16 15 15 15 15 15 15 15 14 14 14 15 14 11 10 11 11 12 14 15 15 12 5 2 4 7 3 4 10 12 10 10 9 5 5 7 7 7 10 8 3 0 1 2 3 0 1 2 2 1 3 4 3 2 3 4 3 5 6 4 5 4 5 6 4 6 7 6 8 7 7 9 10 11 13 18 20 19
18 18 18 18 18 17 17 17 16 16 16 16 16 16 16 16 16 16 15 14 14 14 12 10 10 11 11 13 14 13 11 5 1 1 5 8 5 4 13 13 11 11 8 5 6 7 7 8 9 5 3 1 2 1 3 2 2 1 2 3 3 3 2 3 5 4 4 5 6 5 6 5 4 3 5 10 8 3 5 8 10 12 13 13 12 15 18 17
17 18 17 17 17 17 17 17 17 16 16 16 16 16 16 16 16 17 16 15 14 13 11 9 11 11 10 12 12 10 7 3 2 4 4 6 5 5 14 13 10 10 9 8 7 7 6 5 5 4 3 0 2 1 2 4 3 1 2 3 2 2 2 3 4 5 5 5 6 6 7 6 3 4 7 12 8 5 6 8 12 14 14 15 14 14 15 14
17 17 17 17 17 17 17 17 17 16 16 15 15 15 16 16 16 17 17 16 14 13 10 8 10 10 10 11 9 6 3 2 4 4 4 3 3 4 13 14 10 9 9 8 6 6 5 4 4 3 2 1 1 3 4 3 4 2 2 2 1 1 1 1 2 5 7 6 6 5 4 3 5 5 5 6 4 5 6 8 11 12 14 17 16 14 13 12
16 17 17 17 17 17 17 17 17 16 15 15 15 15 15 16 16 16 16 15 14 13 10 8 9 8 10 10 6 3 3 1 3 2 3 2 2 3 11 14 11 9 9 8 6 4 4 5 4 3 3 2 2 4 4 2 4 4 1 1 2 3 3 3 2 3 6 7 5 5 6 4 6 6 1 0 2 4 7 9 11 13 16 17 14 12 12 12
16 17 17 18 18 17 17 17 17 16 16 16 16 16 16 16 16 16 15 14 12 12 9 7 7 7 10 8 3 3 2 1 2 2 3 1 1 3 11 13 12 9 8 8 6 5 4 5 4 3 2 2 2 3 3 4 3 5 1 0 2 3 4 5 3 3 5 6 5 7 7 3 4 5 2 2 4 7 9 11 11 13 13 13 12 11 11 11
17 17 18 18 18 18 18 18 17 16 16 16 17 17 16 16 16 16 14 12 10 9 8 6 5 6 9 5 2 3 1 1 3 3 3 2 1 3 9 11 12 11 8 7 7 5 3 4 3 3 2 3 2 2 4 4 2 3 2 2 3 4 5 5 3 4 4 3 5 8 6 2 1 3 3 2 5 9 11 12 11 12 11 10 10 10 10 9
17 18 18 19 19 19 19 18 17 17 17 17 17 17 17 17 16 16 14 11 8 6 5 4 4 5 6 4 4 3 1 1 3 3 3 3 2 3 8 9 11 12 8 6 7 6 4 4 3 2 3 2 2 2 4 3 0 3 6 6 7 6 5 5 4 4 3 3 2 7 6 2 3 1 3 2 6 12 13 12 11 12 11 10 9 8 9 10
17 18 19 19 19 19 19 19 18 18 18 18 18 18 18 18 17 16 14 10 7 5 3 2 2 3 3 3 4 1 1 3 3 2 3 4 3 2 5 6 9 13 10 7 10 12 7 4 2 2 2 1 2 2 2 3 4 6 6 7 7 6 6 5 5 4 3 4 2 7 7 3 3 2 2 4 8 13 14 12 11 11 10 9 9 8 8 9
18 19 19 20 20 20 20 20 19 19 19 19 19 19 19 20 18 16 13 9 5 3 2 1 1 1 2 2 3 3 1 2 4 3 5 6 4 4 3 5 7 11 11 7 10 15 10 3 3 3 1 1 2 3 1 3 5 4 3 5 4 4 5 4 4 4 3 1 2 6 7 1 1 0 1 5 8 12 14 13 11 10 9 8 8 7 6 7
19 19 20 20 21 21 21 20 20 20 20 19 19 20 20 20 19 16 11 6 3 2 1 0 1 1 2 1 3 1 1 3 6 6 8 7 4 4 4 4 5 8 10 8 7 11 14 8 0 1 2 1 1 1 3 3 3 2 2 3 3 2 2 1 3 3 2 2 4 1 3 4 5 2 1 4 8 12 13 12 11 9 8 7 7 6 5 7
19 20 20 21 21 21 21 21 21 20 20 20 20 19 20 20 18 13 7 3 1 1 2 1 1 1 1 3 3 2 4 6 8 7 7 7 4 4 5 4 4 6 9 8 2 4 11 12 4 1 2 1 2 1 3 3 2 2 2 2 2 1 1 0 2 5 5 2 4 1 4 5 6 4 2 4 8 12 13 11 11 9 7 7 7 6 6 7
20 20 21 21 21 22 21 21 21 20 20 20 19 19 19 18 14 8 4 1 2 3 3 2 1 1 1 3 2 4 8 7 7 7 4 7 6 4 5 5 6 7 8 7 3 3 5 6 3 1 2 1 3 3 2 2 2 2 1 1 2 0 1 1 3 7 6 1 2 2 3 3 4 5 3 4 8 11 13 11 11 10 8 8 7 7 6 6
21 21 22 22 22 22 22 21 21 19 19 19 20 19 16 13 9 6 3 2 3 4 3 3 1 1 3 2 4 6 5 4 8 8 5 7 7 3 3 5 5 7 8 5 3 3 2 2 2 1 1 1 4 4 3 2 3 2 1 0 0 0 1 1 2 3 5 5 1 3 2 2 2 5 4 4 8 11 11 11 11 10 8 8 7 7 6 5
21 22 22 22 22 22 22 21 20 19 18 18 19 17 12 10 8 5 4 5 4 3 2 1 1 1 0 3 5 4 2 5 10 8 5 6 7 4 4 4 3 5 6 3 2 2 1 0 1 1 2 3 3 4 4 2 3 2 2 1 2 2 1 1 1 1 6 8 3 2 2 1 4 7 5 5 9 10 10 11 11 10 7 6 7 6 6 6
21 22 23 23 23 22 21 21 19 18 17 18 18 13 10 9 7 5 5 6 3 3 2 1 1 2 2 3 3 4 7 10 10 4 4 5 7 7 3 2 4 5 4 2 1 1 1 1 2 1 1 2 2 4 3 3 3 2 2 1 2 2 2 2 1 3 6 7 5 4 2 2 5 7 3 4 8 10 11 11 10 9 7 6 7 7 6 7
22 23 23 24 23 22 21 20 18 17 16 16 17 10 8 9 5 3 2 4 3 1 1 2 1 2 3 5 5 9 10 8 6 3 4 3 4 6 2 3 4 4 4 2 2 2 2 1 2 2 1 3 5 5 4 3 4 5 4 3 2 2 2 2 2 3 5 6 5 6 4 4 7 6 3 5 6 7 9 9 8 8 7 6 6 6 7 7
22 23 24 24 24 22 21 19 17 16 14 15 15 7 5 7 4 3 3 0 1 3 3 3 3 1 5 6 5 8 8 4 2 2 2 3 5 6 2 4 5 5 3 2 1 2 3 2 2 4 5 5 5 3 1 1 3 5 3 2 2 2 1 0 3 3 0 2 5 5 3 6 8 5 4 4 5 7 8 8 8 6 6 7 7 7 8 8
23 24 24 24 24 22 21 19 16 13 11 13 14 6 2 3 3 4 5 4 5 6 7 7 5 5 9 8 5 3 4 2 2 1 2 3 4 5 1 4 6 4 2 1 1 3 3 1 5 5 5 5 4 3 4 3 1 3 3 2 2 2 1 0 2 3 1 2 4 7 5 6 7 4 3 4 6 8 7 8 9 7 7 7 7 9 8 7
24 24 25 25 23 21 20 18 14 10 9 11 11 5 2 2 2 5 3 4 7 6 6 7 4 6 10 10 9 3 3 2 5 4 3 3 3 2 0 4 5 1 3 2 2 5 4 2 8 7 4 4 2 3 2 3 1 1 3 2 1 1 2 2 3 5 1 3 2 9 7 5 4 3 2 4 6 5 3 5 7 7 7 7 8 9 8 6
24 25 25 25 23 21 20 17 12 7 7 11 7 5 1 7 5 3 3 1 7 4 3 3 2 4 6 5 5 6 4 2 2 5 4 5 3 2 3 4 4 1 2 3 2 0 2 5 6 4 5 4 2 2 1 1 1 1 3 2 2 3 2 1 3 5 1 2 2 7 6 2 2 2 1 3 1 0 1 2 4 6 8 9 9 8 9 9
25 26 26 25 23 20 20 16 9 4 8 10 3 3 8 11 6 3 3 1 4 5 3 4 3 4 4 2 5 7 3 3 2 3 5 7 3 2 4 3 4 1 2 3 5 4 5 7 3 2 4 4 3 2 4 3 2 2 3 3 2 4 3 2 4 5 2 2 3 6 4 1 3 4 5 3 0 2 2 3 4 5 7 8 9 9 10 10
26 27 27 26 22 19 18 11 3 5 10 6 1 6 13 13 5 5 3 3 2 6 4 2 1 2 3 0 4 4 2 1 3 4 6 8 6 2 1 2 4 1 5 4 5 2 7 6 4 2 3 5 4 4 4 6 3 3 3 5 4 6 6 7 8 5 1 1 3 5 2 2 5 8 8 4 3 4 2 2 5 5 6 7 9 9 9 10
26 27 27 26 22 19 13 3 3 9 9 2 1 9 14 14 6 6 4 4 1 5 4 1 1 1 2 0 2 1 4 2 4 3 5 7 7 4 2 1 1 2 5 5 3 2 4 3 3 4 5 5 5 5 4 6 4 2 4 5 7 8 8 9 9 4 1 2 1 1 2 1 3 8 10 6 6 8 5 4 6 5 6 7 9 10 9 9
26 27 27 25 22 18 8 1 6 8 3 1 3 9 14 14 4 6 3 5 2 3 2 2 1 1 1 1 2 3 1 4 2 1 2 7 5 3 2 2 1 2 3 4 1 2 3 3 2 3 3 4 5 4 6 8 6 3 4 6 10 9 9 9 7 3 1 1 1 1 1 0 2 5 8 8 8 10 9 7 6 6 7 8 8 9 10 11
26 27 27 24 21 17 9 6 7 4 2 2 5 10 15 11 1 4 4 4 1 1 1 3 2 1 2 0 3 3 2 2 2 2 2 6 5 3 2 4 4 4 2 5 1 4 4 4 5 4 4 3 6 5 7 10 5 2 1 7 9 8 8 7 4 2 2 1 1 3 2 1 2 2 6 8 10 12 13 11 7 6 7 9 9 9 10 11
27 27 26 23 20 15 8 6 6 3 3 3 7 13 13 6 1 4 4 2 1 1 1 2 2 3 3 3 2 2 1 1 2 3 2 4 3 2 1 5 5 4 3 3 4 6 4 5 6 6 5 5 5 3 8 10 5 2 8 10 7 6 6 5 4 2 2 1 2 3 4 2 2 3 6 7 10 13 13 11 8 7 7 8 8 8 9 9
26 26 24 22 18 12 7 8 6 4 3 4 10 12 7 2 4 5 2 1 1 2 2 2 2 2 3 3 4 4 1 1 1 2 2 2 1 3 1 2 3 2 2 2 3 7 5 3 4 4 4 6 2 3 4 10 10 9 10 9 7 5 4 4 2 2 2 2 3 4 6 4 3 4 7 7 8 11 11 9 8 6 6 7 8 7 8 8
26 25 23 21 16 9 5 5 2 4 2 7 11 8 3 2 4 5 1 2 1 2 3 3 3 3 3 1 3 4 2 2 3 2 1 2 3 4 2 1 3 2 3 5 3 6 6 2 2 3 2 5 7 7 5 10 11 8 5 5 5 3 3 3 2 1 2 2 3 4 5 5 4 3 6 7 6 10 12 10 10 10 8 8 7 7 8 9
25 24 22 19 15 11 7 4 2 3 6 8 8 5 4 2 2 2 2 3 2 2 2 3 3 3 2 2 2 3 2 1 2 2 1 1 2 2 1 2 1 2 3 3 4 5 5 1 1 3 1 6 9 8 5 4 3 4 5 4 4 3 3 2 2 1 2 3 2 4 4 3 5 3 5 8 8 11 14 12 11 11 10 9 8 8 8 8
25 24 20 16 13 12 9 6 6 6 6 5 4 4 6 4 1 3 2 2 1 2 1 1 3 3 3 3 3 3 2 1 2 3 1 1 3 2 1 3 4 2 1 2 2 4 4 5 4 4 1 2 7 8 5 2 2 5 6 4 4 3 2 1 2 2 2 3 1 3 3 2 3 3 6 11 12 12 13 12 10 10 10 9 8 9 8 9
25 22 17 14 12 11 8 7 7 4 3 4 4 4 4 2 2 2 2 3 3 2 2 1 3 4 4 3 2 2 2 2 3 3 3 3 4 3 3 2 1 3 2 1 1 2 2 4 3 2 2 3 1 5 7 8 6 4 3 5 4 4 3 2 3 2 2 1 1 1 2 2 2 2 5 9 12 11 10 11 10 8 8 7 7 7 8 9
24 20 15 12 9 5 5 8 7 2 2 4 5 4 2 2 3 1 2 4 2 3 4 3 3 4 4 4 3 1 2 1 2 3 4 3 1 0 1 3 2 3 3 2 1 0 2 3 6 3 3 3 3 2 4 6 4 1 1 4 1 3 4 2 2 4 3 2 1 1 2 3 3 3 2 4 7 10 9 9 10 9 8 7 6 7 8 9
23 18 10 7 4 2 4 8 9 5 3 5 5 2 3 3 2 2 3 2 1 3 4 5 4 4 3 4 3 3 1 1 2 3 3 2 1 2 1 2 1 2 3 3 1 1 2 3 6 5 4 2 4 4 5 5 4 0 1 1 3 3 6 4 1 1 3 1 2 2 2 3 2 3 2 5 6 9 9 9 11 11 9 9 8 8 8 9
24 16 6 5 3 4 6 8 10 6 3 6 4 2 3 3 3 4 2 1 1 1 2 2 1 2 1 2 3 4 3 2 2 3 2 2 1 2 3 3 1 1 2 4 1 1 2 3 5 4 6 6 3 4 5 4 4 4 1 3 2 1 3 4 1 2 3 0 2 2 3 3 1 2 1 5 6 8 9 9 11 11 10 10 10 9 10 10
21 12 5 5 2 6 9 10 10 6 5 5 2 2 2 2 3 4 2 1 1 2 3 2 1 1 2 1 2 5 2 2 2 2 1 1 1 1 2 2 1 2 1 3 2 0 3 2 5 2 3 7 4 5 4 1 2 5 5 1 3 1 2 1 1 0 1 1 3 2 3 3 3 3 2 5 7 9 10 10 11 12 12 11 10 10 10 10
12 5 3 5 1 10 13 12 8 5 5 3 1 2 2 2 4 4 3 0 1 2 1 3 1 1 2 3 2 3 2 1 0 2 1 1 1 0 1 1 1 4 3 3 3 0 2 2 3 5 5 5 5 5 1 3 4 2 2 2 3 4 4 2 2 2 2 1 2 2 2 3 4 3 5 8 9 9 11 10 10 12 13 11 10 10 10 10
5 2 2 6 3 14 16 10 5 5 3 2 3 2 2 2 4 5 5 3 1 1 2 3 2 1 2 3 2 1 1 1 2 2 0 1 1 2 3 1 1 3 3 4 4 1 2 3 1 6 7 3 2 1 1 1 1 1 2 2 2 2 3 3 2 1 3 2 2 1 2 4 4 2 4 7 8 9 10 10 10 12 13 13 12 11 9 9
3 2 2 6 6 15 11 6 3 3 2 1 2 2 2 2 3 5 5 6 4 3 2 4 4 3 3 2 2 2 1 2 1 1 0 0 2 1 2 1 2 2 2 5 4 1 1 2 2 2 5 3 3 3 1 1 3 3 2 1 2 3 3 3 3 2 2 3 3 3 2 5 3 2 4 4 5 7 8 9 9 9 11 12 11 12 11 10
3 1 2 4 8 13 5 3 1 1 3 2 2 3 2 2 3 4 3 2 3 2 1 2 3 3 3 2 2 2 2 2 1 1 1 0 2 3 2 2 3 2 3 2 1 1 2 3 4 0 2 4 8 7 3 2 1 3 2 3 1 1 1 3 3 3 0 1 1 2 1 5 3 4 4 1 2 3 6 8 8 8 9 10 9 9 9 10
2 2 4 1 10 9 5 2 2 1 2 3 3 3 2 1 2 3 3 2 1 1 1 1 2 2 2 2 2 2 3 2 1 1 1 1 2 4 5 5 3 1 4 2 1 0 2 3 3 1 4 5 7 7 4 3 4 3 2 3 2 2 2 3 4 2 1 1 1 1 2 4 3 5 5 2 3 3 1 4 6 5 4 6 8 8 8 8
0 4 3 1 8 6 3 2 3 1 3 3 3 3 3 2 2 2 3 2 2 1 1 2 2 2 2 1 2 2 2 2 1 0 1 1 1 3 4 6 2 2 2 1 2 1 1 1 3 3 3 5 6 6 5 4 4 2 3 4 3 4 5 2 2 1 1 3 3 3 3 4 3 5 5 4 4 4 4 3 2 3 1 1 3 5 6 7
1 2 3 3 2 4 1 3 4 3 3 1 2 4 4 2 3 4 6 5 4 4 2 2 1 3 2 2 4 2 1 2 1 0 1 1 2 2 3 5 3 1 1 2 3 3 2 2 3 4 3 2 1 2 2 3 3 2 3 6 6 8 8 2 2 2 1 3 3 4 3 3 3 4 6 5 4 4 4 6 4 1 2 3 2 3 4 5
2 1 2 5 3 3 1 1 3 3 2 2 1 3 1 2 4 4 5 4 3 4 2 1 1 4 3 3 4 3 2 1 2 2 1 1 3 3 3 4 3 2 3 3 5 4 4 2 2 5 6 6 6 5 5 2 1 2 5 7 7 8 8 3 2 2 1 2 1 3 3 1 1 4 5 5 4 4 4 5 4 1 1 2 3 2 2 3
2 1 1 2 3 3 2 3 4 3 1 2 1 2 1 3 5 3 2 2 1 1 2 1 1 2 2 3 4 1 1 3 3 2 2 2 3 3 4 2 2 5 5 3 3 3 5 2 1 4 3 4 5 4 4 3 4 1 3 6 7 7 9 8 4 2 2 1 3 5 2 2 1 3 4 4 4 4 4 4 4 2 2 2 4 4 3 2
1 0 0 1 1 0 0 3 3 2 2 2 2 1 1 2 3 3 3 4 4 1 2 1 2 3 6 6 5 2 1 2 3 1 2 2 2 3 4 2 2 5 5 3 2 3 6 1 2 3 2 3 1 2 4 2 5 3 2 4 6 6 9 9 6 3 1 2 3 4 2 2 1 3 4 4 4 4 4 4 4 5 4 3 4 5 4 4
1 1 1 1 0 3 3 3 3 2 3 3 1 0 1 1 2 2 2 3 5 2 3 2 5 4 6 6 6 4 3 3 1 3 2 2 1 2 2 1 2 4 4 3 2 3 4 2 3 4 1 3 2 3 3 1 4 3 2 3 4 3 6 7 6 6 3 3 2 1 4 4 3 3 3 3 3 3 2 3 3 5 6 6 6 5 4 2
1 0 2 2 2 2 2 2 1 1 3 1 1 1 1 1 1 3 2 2 3 4 2 5 7 4 5 5 6 5 8 8 6 5 5 3 1 1 1 2 2 4 5 2 2 2 3 1 1 4 3 2 3 2 2 1 3 2 2 3 4 3 4 5 5 5 4 3 4 4 4 4 3 3 4 4 3 3 3 4 4 4 6 8 8 6 4 4
2 2 0 2 1 3 2 2 2 2 2 2 1 1 2 2 2 2 3 5 7 5 4 7 7 4 4 4 5 6 9 9 8 8 9 7 5 4 2 2 4 1 4 1 1 3 3 2 1 4 3 3 3 4 4 1 4 3 3 4 4 3 2 2 3 3 4 3 1 1 1 1 1 3 4 5 5 6 6 5 6 5 5 7 8 7 6 6
4 1 1 3 0 2 1 2 2 1 2 2 1 1 2 4 4 1 3 4 4 5 6 7 8 5 3 4 7 8 9 10 8 7 7 5 3 4 2 3 6 4 1 2 1 2 2 4 2 3 2 3 4 4 3 2 4 3 4 2 1 0 0 2 1 4 4 4 2 1 1 2 3 5 5 6 6 6 5 4 4 4 4 6 7 7 7 6
Wind_Direction
19 19 18 16 15 13 13 12 11 11 12 11 12 14 12 8 1 354 348 343 340 341 346 345 338 332 331 333 335 336 335 332 329 315 257 274 297 203 193 145 163 166 150 135 138 136 122 117 146 151 151 164 209 151 152 138 91 77 82 87 115 194 194 209 196 168 117 133 156 186 148 133 141 134 119 73 54 85 86 71 74 58 73 98 118 133 138 141
20 19 16 14 13 11 10 9 9 11 11 10 10 11 10 9 2 356 349 344 343 343 347 346 338 329 329 336 336 337 335 330 322 294 274 301 300 194 165 151 161 174 169 155 157 146 126 132 154 138 118 121 277 172 152 162 103 117 106 109 217 212 199 214 169 141 129 146 147 154 140 135 145 144 135 108 95 102 90 78 86 86 90 100 118 131 137 140
21 18 15 13 10 8 6 4 6 8 9 8 6 7 6 5 3 357 351 347 346 345 347 346 336 327 334 339 337 340 333 329 333 299 356 7 329 206 166 153 151 167 178 178 172 152 132 145 154 135 96 151 269 169 154 266 202 159 108 135 241 218 192 243 193 161 147 143 135 143 127 115 156 147 120 125 121 115 120 126 117 116 123 120 125 133 138 141
18 16 13 10 7 5 3 1 2 4 6 5 2 2 1 360 359 356 351 347 346 348 349 345 335 334 344 341 339 341 334 344 32 320 2 6 15 158 167 156 142 149 152 127 128 138 127 131 141 124 93 223 304 155 166 186 184 176 149 195 242 196 161 240 217 154 129 140 137 138 118 121 173 131 118 132 121 124 164 159 148 145 143 136 137 139 142 146
15 12 10 6 3 0 359 358 358 0 3 1 359 357 355 355 354 352 349 345 345 349 350 346 339 343 348 341 340 337 350 56 264 291 346 357 20 148 166 159 148 150 148 123 115 130 125 114 107 74 79 186 321 77 199 183 162 175 201 225 238 182 165 213 196 133 122 125 119 127 128 140 150 104 142 147 143 178 183 168 153 148 147 143 144 144 146 150
10 8 5 1 358 357 355 355 355 357 358 356 355 353 352 352 350 348 345 342 343 346 350 346 342 348 348 340 339 338 30 95 261 304 345 345 26 146 166 166 161 156 154 135 118 127 121 94 76 81 92 8 196 199 245 181 158 206 253 250 250 139 120 154 156 129 129 125 129 140 119 101 103 109 161 157 145 167 159 154 147 142 144 142 143 147 149 154
6 4 1 356 355 353 351 352 352 354 353 350 349 349 349 348 347 344 342 341 339 342 345 345 347 348 348 344 338 359 66 223 269 349 347 337 42 150 168 172 169 165 167 146 121 120 120 106 102 124 103 350 207 218 254 154 172 217 249 227 56 40 54 42 47 124 129 130 142 124 86 69 109 123 173 152 102 127 138 138 136 136 139 141 144 152 155 158
3 1 357 354 352 351 349 350 351 351 350 346 344 345 345 343 342 339 338 339 335 338 336 340 350 347 352 355 354 16 34 288 321 358 337 342 37 164 172 174 173 178 175 160 151 148 134 122 142 143 102 272 206 216 214 116 191 222 199 142 60 40 51 46 42 80 101 120 119 100 93 83 121 135 142 188 145 126 132 132 133 137 139 144 150 158 160 158
0 357 354 352 351 349 348 348 350 349 346 344 342 341 340 339 339 335 333 332 331 333 328 334 345 352 1 358 52 52 269 246 10 353 340 326 334 167 181 183 183 186 169 168 175 167 166 151 172 162 149 237 229 242 195 136 233 208 113 74 77 49 41 45 49 63 74 96 105 103 100 76 102 139 122 177 157 131 133 135 139 143 145 153 156 162 165 159
358 356 354 351 350 349 347 348 348 346 345 342 340 339 337 336 335 331 326 324 326 327 324 328 341 2 5 3 67 76 212 356 3 343 341 310 300 172 190 197 197 193 168 158 177 180 182 166 176 163 150 251 275 260 189 163 280 104 93 75 72 62 44 38 55 63 58 29 73 120 113 39 0 81 123 178 157 136 134 140 147 150 153 160 160 166 170 167
358 356 354 351 351 349 348 348 347 345 344 341 339 338 336 334 333 328 321 318 322 330 327 314 345 5 3 46 90 164 182 68 18 355 332 304 295 244 217 219 210 196 168 146 186 197 182 152 125 114 141 270 297 348 90 115 90 105 108 79 59 66 58 39 65 56 21 357 350 115 100 16 3 47 158 176 159 142 139 147 156 158 160 164 165 167 173 174
358 356 354 352 351 350 349 348 346 346 343 342 340 338 336 334 331 325 318 315 320 336 338 305 355 358 356 56 153 204 135 37 339 315 292 293 290 280 270 254 230 206 186 169 198 204 194 172 58 63 258 292 1 351 82 115 110 123 114 85 57 68 69 39 69 49 16 296 276 104 89 315 226 99 233 167 159 146 143 153 160 164 165 166 169 168 176 177
359 357 355 353 351 351 350 347 347 345 343 343 341 339 337 333 329 325 320 316 322 351 47 145 315 350 34 341 235 226 21 312 309 293 273 278 276 265 277 272 244 228 212 197 198 199 201 213 152 83 247 63 20 254 136 97 109 117 58 94 89 65 77 46 88 84 133 216 288 104 138 219 205 236 289 156 156 145 146 159 162 167 171 167 174 171 174 175
358 356 354 353 352 351 350 348 347 346 345 345 343 340 336 332 330 328 329 325 332 105 130 118 339 39 82 275 257 1 328 304 308 299 269 255 244 241 258 250 216 219 217 214 207 171 197 210 213 249 248 189 184 172 86 37 34 87 58 67 78 80 231 40 137 144 162 231 314 267 198 207 197 214 223 153 157 152 152 165 165 168 175 171 174 174 177 181
357 355 355 353 353 352 350 348 347 348 348 346 343 339 337 337 337 344 3 44 116 126 131 92 25 67 32 302 290 340 320 317 330 329 298 244 221 215 237 222 206 202 204 215 207 138 178 188 183 227 270 240 128 99 41 27 28 62 101 338 24 128 233 155 161 165 167 186 326 228 200 192 191 199 199 151 159 161 157 165 169 169 174 174 174 177 182 182
355 355 354 353 353 352 350 348 348 350 350 348 343 341 345 348 353 11 45 107 118 136 124 82 59 93 90 334 331 344 322 329 342 334 310 247 224 203 187 184 190 195 203 213 191 192 203 155 169 185 132 91 114 106 49 34 359 359 99 193 228 195 280 171 153 175 152 133 244 255 172 133 177 185 190 159 163 168 161 165 171 170 173 174 176 180 179 168
354 353 353 353 353 351 350 349 349 351 352 349 345 348 360 3 13 37 86 99 108 142 111 107 135 51 66 297 327 346 313 319 327 312 282 258 231 199 139 134 142 163 182 178 152 200 241 134 247 288 63 78 118 108 67 351 293 325 72 132 198 201 254 179 132 157 147 150 182 239 152 137 158 163 172 168 166 169 167 169 173 171 168 174 178 178 172 166
352 351 352 353 352 351 350 349 349 352 352 351 349 356 12 12 31 66 103 93 88 126 78 277 137 54 295 288 313 296 297 311 319 298 254 263 237 222 197 115 111 112 90 71 77 44 31 353 36 66 21 65 137 136 130 230 232 165 146 157 198 202 215 219 171 161 163 162 165 165 152 97 139 145 137 154 163 173 175 172 175 170 163 174 178 174 174 172
349 349 351 352 352 351 350 349 351 352 352 355 352 357 17 11 34 79 115 88 49 69 339 283 102 75 256 260 280 294 305 310 310 275 222 231 210 211 215 82 93 87 66 52 2 13 97 30 35 133 184 181 194 186 160 192 175 145 146 160 172 175 205 205 126 145 173 164 161 173 162 129 145 141 125 140 148 172 179 175 176 169 161 174 180 176 175 178
348 347 348 350 351 350 349 348 350 350 352 358 357 1 22 8 16 355 324 7 196 208 243 245 162 189 270 270 289 310 318 303 276 258 199 191 158 145 74 38 44 42 66 130 257 351 94 117 242 214 208 210 215 233 247 105 118 119 118 142 144 128 178 156 113 114 208 183 173 169 145 148 155 144 140 136 133 167 179 180 183 171 166 177 180 180 179 186
348 346 346 348 349 349 348 346 347 350 354 3 9 31 65 16 18 323 323 305 247 214 234 244 199 229 260 264 279 327 358 332 289 298 172 182 138 121 6 20 52 27 336 208 205 10 53 149 248 238 206 208 223 251 269 276 32 99 123 136 109 122 162 74 124 132 358 289 181 156 150 167 162 143 136 141 162 180 179 185 190 178 174 180 180 183 184 184
347 345 344 345 347 348 345 343 343 350 4 9 24 75 156 350 320 265 286 318 282 226 225 252 244 258 263 261 259 239 81 19 317 306 190 153 52 92 278 48 85 192 312 15 21 4 8 253 257 252 190 165 215 239 258 260 243 100 106 123 135 170 140 100 127 140 138 319 174 157 157 166 156 131 149 169 176 180 171 195 200 181 176 184 184 184 181 170
347 344 343 342 344 345 342 340 340 354 13 4 25 107 38 348 336 247 178 310 295 275 225 236 244 266 285 282 220 164 120 159 288 300 201 148 39 124 129 72 103 162 16 67 154 40 320 248 245 231 154 143 239 216 167 241 235 141 130 129 183 186 160 119 143 138 108 355 147 156 140 122 123 102 197 204 172 15 339 256 225 188 181 187 185 182 175 170
346 343 341 339 341 344 341 336 338 11 5 352 20 71 3 354 359 146 153 337 305 295 254 219 229 230 271 311 153 144 128 181 186 264 196 143 84 117 139 130 117 88 280 168 154 171 253 245 209 123 143 164 237 205 160 185 264 268 189 168 178 177 153 82 124 128 79 24 158 151 112 115 183 184 208 208 238 299 315 299 258 207 187 186 181 182 179 174
345 343 340 337 338 341 339 339 10 15 350 344 70 7 360 355 352 148 135 30 325 296 290 245 265 223 244 35 159 168 110 198 222 229 193 150 134 121 145 170 116 198 239 163 130 196 266 250 174 192 206 178 208 227 185 182 226 305 230 189 159 154 135 110 123 128 102 253 192 166 161 209 188 195 206 193 198 234 248 251 243 211 186 189 182 183 185 179
343 341 339 336 334 338 342 0 20 349 337 315 7 351 352 349 343 156 128 39 336 297 319 326 346 296 288 62 168 109 59 309 253 205 176 161 152 117 105 246 59 226 205 148 134 216 269 271 162 194 208 175 197 236 212 170 148 305 251 174 135 135 131 129 140 143 172 231 227 195 221 205 186 199 201 185 195 221 229 231 234 211 187 195 192 182 183 182
341 340 339 334 332 340 344 304 325 331 323 249 330 342 343 345 348 161 108 30 345 290 304 292 335 68 294 229 134 90 75 288 297 105 166 167 164 67 92 240 315 232 185 119 8 250 214 255 215 174 155 161 191 235 217 163 138 247 241 139 131 136 134 139 148 136 77 29 25 305 218 217 238 199 185 178 192 217 231 233 233 219 196 195 199 187 180 182
339 339 336 331 332 336 325 298 308 297 215 268 324 336 338 340 329 144 77 52 331 310 238 279 290 262 302 36 111 109 233 284 65 310 294 159 172 57 55 232 200 217 199 122 233 260 198 214 218 169 117 168 209 222 189 151 127 265 163 118 127 129 131 136 127 84 42 24 298 251 201 197 272 170 162 179 196 212 222 223 222 216 201 193 197 193 184 185
337 338 333 328 328 328 317 295 287 236 206 276 327 334 336 339 106 83 68 96 339 338 211 298 309 289 332 34 32 359 300 19 122 265 333 129 183 66 126 213 175 211 251 134 211 255 234 213 199 149 137 206 221 196 168 144 123 124 101 91 88 90 100 99 81 56 33 6 241 227 196 209 257 163 162 187 205 212 213 214 216 210 199 192 193 191 186 187
335 336 330 325 324 325 319 296 268 210 211 299 329 335 348 42 77 64 53 195 330 283 253 327 315 318 22 34 336 335 316 284 313 310 10 68 345 18 135 188 115 151 280 9 251 257 276 237 175 144 175 200 139 78 140 131 124 120 99 87 80 65 59 67 60 66 49 299 238 194 187 209 246 193 183 194 201 204 204 207 210 205 196 192 191 187 182 185
334 335 327 321 318 308 301 301 238 175 259 321 335 347 41 63 62 86 179 250 273 303 345 318 294 8 47 65 310 335 10 309 331 24 6 351 4 15 29 6 33 51 4 358 306 284 324 21 191 240 199 139 94 65 83 115 122 115 99 104 95 41 11 46 13 52 116 264 246 180 175 198 233 225 204 208 189 185 199 206 202 200 200 195 189 183 181 183
334 333 324 316 304 277 251 253 232 250 304 332 347 15 85 47 19 116 262 311 303 293 339 279 289 17 32 49 3 325 343 313 346 64 120 13 33 54 115 193 213 18 347 325 327 329 336 321 264 326 32 117 105 87 80 87 96 110 114 104 83 34 0 18 335 312 194 255 241 155 148 198 240 240 203 210 201 190 197 203 203 201 198 191 183 180 180 182
333 331 324 311 292 271 257 257 261 270 307 343 10 48 78 80 231 221 268 319 259 257 253 267 319 6 30 45 10 317 351 358 350 37 70 65 68 54 272 212 171 109 250 250 338 1 335 315 7 39 325 152 118 120 136 190 209 159 150 130 114 109 68 282 264 281 253 265 263 144 154 217 269 252 196 199 204 199 194 197 203 203 199 193 183 177 177 181
333 332 323 307 290 275 257 241 243 257 329 15 60 65 69 100 221 227 262 263 258 297 352 347 336 3 29 35 326 311 44 357 345 27 18 26 56 35 330 310 114 122 128 117 356 61 34 319 350 79 260 278 161 157 163 165 168 183 158 125 136 152 150 198 211 209 230 215 85 117 179 191 210 234 203 196 199 194 188 195 200 201 199 191 177 170 173 181
334 331 321 304 292 272 223 208 212 209 53 55 65 73 128 211 242 216 233 252 280 326 333 358 45 43 10 332 313 5 108 315 350 36 29 33 55 10 344 337 14 99 100 75 306 84 85 269 270 274 249 247 270 224 136 125 137 247 73 106 157 180 147 140 196 180 157 126 144 200 234 217 202 225 205 170 185 181 180 194 197 201 196 175 168 175 177 183
336 335 325 295 273 171 169 182 180 164 104 76 65 78 185 213 211 172 209 242 327 322 329 354 45 62 356 316 326 359 29 325 43 52 14 13 332 281 288 289 331 84 110 116 158 2 47 277 280 324 336 262 228 197 148 134 151 156 38 191 235 181 125 109 250 212 93 93 234 206 252 288 291 262 189 135 158 172 177 191 200 203 192 176 180 183 183 185
338 338 324 286 274 164 162 162 156 145 93 80 89 189 220 218 184 177 220 278 345 12 52 28 18 77 354 322 318 321 341 353 35 61 9 350 331 301 311 294 303 69 162 145 147 202 124 289 294 353 348 303 258 152 139 141 133 125 213 248 262 26 73 107 129 357 53 159 262 213 238 279 290 282 210 140 158 170 175 187 201 203 191 187 192 184 184 189
335 333 313 308 288 166 158 148 141 123 74 75 92 236 226 212 198 196 232 299 1 46 86 151 218 141 179 170 295 299 346 19 5 44 58 4 2 283 319 309 303 331 284 124 87 92 102 335 291 297 317 309 349 89 125 280 64 132 180 210 77 66 318 1 133 77 124 224 283 271 268 260 212 222 210 184 184 176 174 183 197 203 196 193 194 185 185 188
336 342 337 345 70 157 149 142 133 79 60 85 186 242 226 235 246 222 206 228 66 86 126 214 187 95 170 166 211 286 7 72 77 73 109 91 46 354 331 282 282 331 340 90 108 140 81 56 289 303 318 325 12 61 133 290 341 64 116 78 104 166 211 248 209 166 161 201 261 292 314 265 232 228 205 200 194 180 178 182 194 204 200 194 193 187 184 182
2 44 330 354 88 152 146 131 96 57 71 190 198 210 250 252 265 248 208 194 174 167 207 213 174 121 193 196 205 240 39 90 142 105 117 152 83 310 298 269 258 322 353 59 88 102 54 74 269 307 328 358 25 24 171 229 291 354 73 119 189 212 210 243 255 149 138 159 193 236 298 264 261 275 227 213 197 184 183 185 193 201 198 194 193 188 181 178
27 58 306 360 117 155 141 98 64 75 119 238 212 216 270 257 275 283 230 199 204 217 195 181 175 165 178 178 190 204 91 67 100 109 212 134 109 247 286 255 216 248 36 43 43 73 82 97 136 309 341 355 268 262 246 236 209 173 115 115 236 243 206 225 277 292 120 129 166 165 236 268 284 322 276 236 197 188 187 189 195 196 194 194 193 188 181 176
42 78 309 6 157 166 116 74 227 107 142 222 222 212 273 284 268 295 284 212 207 214 151 165 177 164 171 179 179 169 120 96 55 97 153 187 151 191 271 297 239 188 100 85 299 234 148 106 100 62 303 273 268 283 318 320 204 137 85 36 354 287 118 148 229 264 10 95 167 140 233 268 289 333 318 300 155 174 189 200 203 197 193 190 185 181 176 175
76 263 315 12 180 175 67 73 256 341 188 245 261 222 255 277 257 293 313 330 261 217 82 189 196 171 194 203 173 155 124 129 164 129 186 254 211 221 278 310 278 129 81 85 267 283 99 80 70 341 301 302 300 316 343 11 54 68 6 11 35 318 294 205 202 197 168 211 183 93 272 267 303 339 341 36 90 84 103 222 208 194 194 187 177 167 165 171
176 253 313 22 184 179 64 166 208 251 246 290 329 289 294 268 220 260 273 262 238 205 138 198 196 174 190 140 115 151 145 132 173 276 169 158 231 238 287 319 326 110 92 161 175 104 84 85 80 72 7 345 339 344 350 358 32 55 299 330 359 340 329 276 216 91 218 224 149 131 245 265 302 343 1 30 72 73 31 16 122 135 122 159 153 146 157 167
358 234 287 334 170 148 140 182 153 162 233 335 340 293 304 287 245 236 241 247 224 185 171 227 169 121 127 84 72 64 74 126 168 293 115 159 284 283 313 331 358 69 261 199 144 105 102 129 114 112 126 162 215 287 291 303 335 341 310 328 352 5 6 338 190 109 209 240 144 151 220 263 307 353 14 15 35 60 40 48 76 139 181 142 98 110 154 166
41 91 301 331 10 74 106 192 101 121 166 86 339 282 272 290 290 255 224 237 219 165 134 269 120 86 64 76 78 30 353 38 84 90 121 224 271 278 310 330 356 342 330 73 90 83 95 97 105 134 159 172 174 206 220 196 26 337 324 335 353 8 12 20 95 98 221 268 269 228 216 163 315 348 12 5 12 30 38 68 84 346 287 116 100 93 132 152
75 63 23 347 341 23 23 359 44 61 135 139 176 272 266 290 311 321 272 259 269 110 90 22 110 124 145 124 113 105 327 2 23 105 154 234 262 280 305 327 341 322 332 48 70 75 92 61 66 132 182 200 164 194 226 156 128 196 320 344 355 8 26 37 29 332 262 277 299 294 329 94 228 315 358 358 359 7 17 51 89 96 33 50 71 65 54 73
86 316 155 141 269 229 19 334 355 356 293 215 198 250 293 311 340 348 312 313 336 30 114 1 307 192 183 158 129 138 130 28 351 244 173 209 270 326 339 346 327 327 345 20 17 86 105 153 196 149 258 288 170 248 272 173 144 145 32 1 349 14 41 38 6 336 85 156 247 293 17 95 218 344 6 2 359 2 12 27 65 102 102 95 92 81 59 42
52 1 302 32 50 203 220 292 319 328 285 240 217 276 230 301 333 286 265 324 327 322 131 185 264 225 181 153 120 133 172 152 205 253 213 179 247 354 11 352 318 347 28 32 0 78 108 184 197 140 91 322 302 275 289 142 136 129 65 11 346 34 64 49 14 358 34 117 162 61 80 81 40 16 16 18 20 24 39 37 53 90 105 108 106 99 91 75
36 309 309 18 4 262 262 308 14 30 323 293 183 266 242 185 289 294 252 197 269 297 135 189 223 192 157 146 127 163 200 176 171 203 182 146 188 222 174 194 258 346 20 34 350 41 92 165 196 104 90 304 306 342 338 46 102 97 37 13 5 31 66 62 37 356 347 73 99 98 96 74 49 43 29 30 47 62 66 54 45 63 89 100 108 122 141 148
333 236 170 77 351 307 307 321 67 90 335 329 159 252 287 232 240 316 288 218 206 231 228 196 185 139 116 136 146 188 204 177 171 188 174 161 184 196 199 185 178 14 5 18 338 8 82 120 61 75 85 266 306 359 326 341 72 29 336 353 4 23 54 55 55 21 342 336 11 70 65 28 93 103 54 41 46 43 41 43 44 52 74 93 110 131 147 156
3 310 40 101 287 322 352 332 8 94 237 255 211 266 274 259 263 4 331 275 220 231 245 191 161 126 98 163 190 203 195 177 179 184 167 158 169 164 148 160 158 146 131 147 26 353 101 124 141 102 101 259 295 348 335 23 46 330 286 291 296 208 2 334 29 49 11 333 334 30 313 327 70 85 54 38 42 40 29 19 34 53 66 82 100 115 125 138